Palos Park, Illinois, United States (60464)
Lat: 41.67N, Lon: 87.83W
Wx Zone: ILZ014
Local Info
Past Weather Observations for Thursday, January 22, 2015

NOTE: This archive is for the closest National Weather Service station to Palos Park. Information may differ from the station used for current weather conditions.

Click here for Long-term Archive

Time Weather Temperature Dewpoint Humidity Pressure Winds Precip Visibility
23:53
Overcast
Hazy
30°F / -1°C 25°F / -4°C 80% 30.36 in
(1028 mb)
SSW 11.5 mph
(SSW 19 kph)
- 4SM
22:53
Overcast
30°F / -1°C 25°F / -4°C 80% 30.39 in
(1029 mb)
SSW 8.1 mph
(SSW 13 kph)
- 10SM
21:53
Overcast
30°F / -1°C 25°F / -4°C 80% 30.39 in
(1029 mb)
SW 9.2 mph
(SW 15 kph)
- 10SM
20:53
Overcast
32°F / 0°C 25°F / -4°C 75% 30.42 in
(1030 mb)
SW 9.2 mph
(SW 15 kph)
- 10SM
19:53
Overcast
32°F / 0°C 25°F / -4°C 75% 30.42 in
(1030 mb)
SSW 8.1 mph
(SSW 13 kph)
- 10SM
18:53
Overcast
34°F / 1°C 25°F / -4°C 70% 30.42 in
(1030 mb)
SW 8.1 mph
(SW 13 kph)
- 10SM
17:53
Overcast
34°F / 1°C 25°F / -4°C 70% 30.42 in
(1030 mb)
SSW 4.6 mph
(SSW 7 kph)
- 10SM
16:53
Overcast
34°F / 1°C 25°F / -4°C 70% 30.42 in
(1030 mb)
W 3.5 mph
(W 6 kph)
- 10SM
15:53
Overcast
34°F / 1°C 25°F / -4°C 70% 30.42 in
(1030 mb)
W 8.1 mph
(W 13 kph)
- 10SM
14:53
Overcast
34°F / 1°C 25°F / -4°C 70% 30.42 in
(1030 mb)
SSW 8.1 mph
(SSW 13 kph)
- 10SM
13:53
Overcast
34°F / 1°C 25°F / -4°C 70% 30.42 in
(1030 mb)
W 6.9 mph
(W 11 kph)
- 10SM
12:53
Overcast
34°F / 1°C 25°F / -4°C 70% 30.42 in
(1030 mb)
W 6.9 mph
(W 11 kph)
- 10SM
11:53
Overcast
34°F / 1°C 25°F / -4°C 70% 30.42 in
(1030 mb)
W 5.8 mph
(W 9 kph)
- 10SM
10:53
Overcast
34°F / 1°C 25°F / -4°C 70% 30.42 in
(1030 mb)
NW 5.8 mph
(NW 9 kph)
- 10SM
09:53
Overcast
34°F / 1°C 25°F / -4°C 70% 30.45 in
(1031 mb)
NW 5.8 mph
(NW 9 kph)
- 10SM
08:53
Overcast
32°F / 0°C 25°F / -4°C 75% 30.42 in
(1030 mb)
NW 4.6 mph
(NW 7 kph)
- 10SM
07:53
Overcast
32°F / 0°C 25°F / -4°C 75% 30.42 in
(1030 mb)
W 3.5 mph
(W 6 kph)
- 9SM
06:53
Overcast
30°F / -1°C 23°F / -5°C 75% 30.39 in
(1029 mb)
W 4.6 mph
(W 7 kph)
- 9SM
05:53
Overcast
30°F / -1°C 23°F / -5°C 75% 30.36 in
(1028 mb)
SSW 3.5 mph
(SSW 6 kph)
- 9SM
04:53
Overcast
30°F / -1°C 23°F / -5°C 75% 30.33 in
(1027 mb)
NW 4.6 mph
(NW 7 kph)
- 10SM
03:53
Overcast
30°F / -1°C 23°F / -5°C 75% 30.3 in
(1026 mb)
WNW 4.6 mph
(WNW 7 kph)
- 10SM
02:53
Overcast
30°F / -1°C 23°F / -5°C 75% 30.3 in
(1026 mb)
WNW 5.8 mph
(WNW 9 kph)
- 10SM
02:37
Overcast
30°F / -1°C 23°F / -5°C 75% 30.3 in
(1026 mb)
WNW 4.6 mph
(WNW 7 kph)
- 10SM
01:53
Overcast
30°F / -1°C 21°F / -6°C 69% 30.3 in
(1026 mb)
W 3.5 mph
(W 6 kph)
- 10SM
00:53
Overcast
30°F / -1°C 23°F / -5°C 75% 30.27 in
(1025 mb)
WNW 3.5 mph
(WNW 6 kph)
- 9SM
Time Weather Temperature Dewpoint Humidity Pressure Winds Precip Visibility


Weather for websites

WeatherForYou.com, LLC is not responsible for any damages or problems caused by this service. Current weather conditions are obtained from the closest station including government and personal stations which may have varying degrees of accuracy. Weather forecasts are derived from the NOAA NDFD. Like all things, this site belongs to Jesus Christ... He just trusts me to maintain it. If you have any questions or comments email webmaster@weatherforyou.com

Copyright © 2015, WeatherForYou.com LLC. All rights reserved.